Regional Weather Roundup
Issued by NWS

Home | Current Version | Previous Version | Graphics & Text | Print | Product List | Glossary Off
Versions: 1 2 3 4 5 6 7 8 9 10 11 12 13 14 15 16 17 18 19 20 21 22 23 24 25 26 27 28 29 30 31 32 33 34 35 36 37 38 39 40 41 42 43 44 45 46 47 48 49 50

000
ASUS43 KFSD 301210
RWRSD

WEATHER ROUNDUP FOR SOUTH DAKOTA
NATIONAL WEATHER SERVICE SIOUX FALLS SD
700 AM CDT SAT AUG 30 2014

NOTE: "FAIR" INDICATES FEW OR NO CLOUDS BELOW 12,000 FEET WITH NO
SIGNIFICANT WEATHER AND/OR OBSTRUCTIONS TO VISIBILITY.


SDZ001>005-009-010-012>017-301300-
NORTHWEST AND NORTH CENTRAL SOUTH DAKOTA

CITY           SKY/WX    TMP DP  RH WIND       PRES   REMARKS
BUFFALO          N/A     53  52  96 SE10      29.87S
FAITH            N/A     54  53  97 SE12      29.95F
MOBRIDGE         N/A     49  49 100 CALM      29.95R
$$

SDZ012>016-024>037-041>051-057-063-072>074-301300-
SOUTHWEST AND SOUTH CENTRAL SOUTH DAKOTA

CITY           SKY/WX    TMP DP  RH WIND       PRES   REMARKS
RAPID CTY ARPT CLEAR     52  51  97 SE6       29.95F FOG
PIERRE         CLEAR     52  51  97 CALM      29.96R
CUSTER         CLEAR     46  44  93 W3        30.05S
ELLSWORTH AFB  CLEAR     56  55  95 SE8       29.94F
PHILIP         FOG       51  50  96 E5        29.96F VSB 1/4
PINE RIDGE     CLEAR     56  53  90 S5        29.97F
WINNER         FOG       53  53 100 CALM      29.98S VSB 3/4
$$

SDZ004>011-016>023-039-040-301300-
NORTHEAST SOUTH DAKOTA

CITY           SKY/WX    TMP DP  RH WIND       PRES   REMARKS
ABERDEEN       CLOUDY    58  56  93 N8        29.95R
WATERTOWN      CLOUDY    59  58  96 N9        29.92R
SISSETON         N/A     59  57  93 N9        29.91R
$$

SDZ017-020-022-023-036>040-048>070-301300-
SOUTHEAST SOUTH DAKOTA

CITY           SKY/WX    TMP DP  RH WIND       PRES   REMARKS
SIOUX FALLS    CLOUDY    63  61  93 NW8       29.91R FOG
HURON          CLOUDY    59  57  93 NW6       29.94R
CHAMBERLAIN    MOCLDY    53  53  99 CALM      29.98R FOG
MITCHELL       MOCLDY    59  58  96 NW5       29.95R
YANKTON        PTCLDY    59  57  94 NW9       29.94R
$$

ABBREVIATIONS USED IN REMARKS
   TC - TEMPERATURE IN CELSIUS
  WCI - WIND CHILL INDEX
   HX - HEAT INDEX
  VSB - VISIBILITY



USA.gov is the U.S. government's official web portal to all federal, state and local government web resources and services.